Regional Weather Roundup
Issued by NWS Albany, NY

Home | Current Version | Previous Version | Graphics & Text | Print | Product List | Glossary On
Versions: 1 2 3 4 5 6 7 8 9 10 11 12 13 14 15 16 17 18 19 20 21 22 23 24 25 26 27 28 29 30 31 32 33 34 35 36 37 38 39 40 41 42 43 44 45 46 47 48 49 50
638
ASUS41 KALY 250510
RWRALY

NEW YORK STATE HOURLY WEATHER ROUNDUP
NATIONAL WEATHER SERVICE ALBANY NY
100 AM EDT TUE APR 25 2017

NOTE: "FAIR" INDICATES FEW OR NO CLOUDS BELOW 12,000 FEET WITH NO
SIGNIFICANT WEATHER AND/OR NO OBSTRUCTIONS TO VISIBILITY.

NYZ032-033-038>043-046>054-057>066-NYZ062>081-082-084-250600-
EAST


CITY           SKY/WX    TMP DP  RH WIND       PRES   REMARKS
ALBANY         MOCLDY    48  31  51 N6        30.17F
GLENS FALLS    CLOUDY    41  31  67 CALM      30.19S
POUGHKEEPSIE   CLOUDY    55  34  45 SE5       30.13S
NEWBURGH       MOCLDY    54  34  47 SE6       30.14F
MONTGOMERY     CLOUDY    55  34  45 E5        30.13R
WHITE PLAINS   DRIZZLE   50  43  77 E6        30.12F
ISLIP          CLOUDY    52  50  93 E9        30.13S
NEW YORK CITY  CLOUDY    51  46  83 NE13      30.12F
CENTRAL PARK   CLOUDY    51  45  79 E6        30.14F
$$

NYZ005>009-017-018-044>046-055-056-250600-
CENTRAL


CITY           SKY/WX    TMP DP  RH WIND       PRES   REMARKS
FULTON         PTCLDY    47  39  74 E5        30.08S
SYRACUSE       CLOUDY    51  40  65 E5        30.08S
ROME           PTCLDY    50  39  66 SE7       30.13S
ELMIRA         MOCLDY    53  43  68 CALM      30.05F
BINGHAMTON     CLOUDY    54  33  45 SE7       30.07F
MONTICELLO     PTCLDY    52  36  54 E9        30.12F
$$

NYZ026>034-041>043-087-250600-
NORTH


CITY           SKY/WX    TMP DP  RH WIND       PRES   REMARKS
WATERTOWN      CLEAR     42  32  67 NE12      30.11F
FORT DRUM      NOT AVBL
OGDENSBURG     FAIR      43  27  53 NE9       30.17S
MASSENA        PTCLDY    42  24  49 E14       30.21F
SARANAC LAKE   CLEAR     34  26  72 CALM      30.16F
PLATTSBURGH    CLEAR     35  26  69 W5        30.25R WCI  31
$$

NYZ001>004-010>016-019>021-085-250600-
WEST


CITY           SKY/WX    TMP DP  RH WIND       PRES   REMARKS
NIAGARA FALLS  CLEAR     47  35  63 E12       30.03S
BUFFALO        CLOUDY    48  36  63 E8        30.03S
DUNKIRK        CLOUDY    45  40  82 E6        30.00S
JAMESTOWN      CLOUDY    55  36  47 SE14G21   30.00F
WELLSVILLE     CLOUDY    55  36  48 SE14      30.06S
ROCHESTER      CLOUDY    46  35  65 E6        30.07F
PENN YAN       MOCLDY    46  40  79 CALM      30.07F
$$

             KEY
       WCI = WIND CHILL INDEX
       VSB = VISIBILITY
       HX  = HEAT INDEX
$$




USA.gov is the U.S. government's official web portal to all federal, state and local government web resources and services.